Regional Weather Roundup
Issued by NWS

Home | Current Version | Previous Version | Graphics & Text | Print | Product List | Glossary On
Versions: 1 2 3 4 5 6 7 8 9 10 11 12 13 14 15 16 17 18 19 20 21 22 23 24 25 26 27 28
000
ASUS45 KBOI 260010
RWRID

IDAHO REGIONAL WEATHER ROUNDUP
NATIONAL WEATHER SERVICE BOISE ID
600 PM MDT SAT MAR 25 2017

NOTE: "FAIR" INDICATES FEW OR NO CLOUDS BELOW 12000 FEET
WITH NO SIGNIFICANT WEATHER AND/OR OBSTRUCTIONS TO VISIBILITY

IDZ012-014-260100-
SOUTHWEST IDAHO


CITY           SKY/WX    TMP DP  RH WIND       PRES   REMARKS
BOISE          MOSUNNY   56  30  37 N10       30.00S
CALDWELL       PTSUNNY   57  34  41 N7        30.01S
MOUNTAIN HOME  MOSUNNY   56  32  40 NW14      30.00R
$$

IDZ016-017-260100-
SOUTHCENTRAL IDAHO


CITY           SKY/WX    TMP DP  RH WIND       PRES   REMARKS
BURLEY         SUNNY     51  22  31 W13G24    29.97S
JEROME         SUNNY     52  25  35 W15G28    29.99S
TWIN FALLS     MOSUNNY   51  28  41 W16       29.99F
$$

IDZ019>023-260100-
SOUTHEAST IDAHO


CITY           SKY/WX    TMP DP  RH WIND       PRES   REMARKS
IDAHO FALLS    MOSUNNY   50  29  44 S15       29.93F
POCATELLO      MOSUNNY   50  29  44 W16       29.96S
REXBURG        CLOUDY    47  32  56 S10       29.93F
$$

IDZ006-010-011-018-031-032-260100-
CENTRAL IDAHO MOUNTAINS


CITY           SKY/WX    TMP DP  RH WIND       PRES   REMARKS
MCCALL         CLOUDY    40  27  59 SE7       29.98S
HAILEY         MOSUNNY   46  27  46 SW12      29.95F
STANLEY          N/A     38  19  46 NW5       29.99R WCI  34
SALMON         PTSUNNY   50  25  37 N6        29.89S
CHALLIS        MOSUNNY   50  17  27 SW17      29.91S
$$

IDZ002-004-006-007-026-260100-
NORTHERN IDAHO


CITY           SKY/WX    TMP DP  RH WIND       PRES   REMARKS
LEWISTON       MOSUNNY   50  38  63 SE8       30.04F
LOWELL           N/A     48  40  73 CALM      30.06R
COEUR D`ALENE  CLOUDY    49  31  49 SW10      29.99F
MULLAN PASS    CLOUDY    29  28  96 VRB5      29.94R FOG     WCI  24
$$




USA.gov is the U.S. government's official web portal to all federal, state and local government web resources and services.